User: anonymous   Login
Location: Street
(51.1247°N, 2.7429°W)
Time: 23:46:15
(UTC+00:00)
Language:

Courier 1B - Orbit

View from above orbital plane
View from above orbital plane
View from above satellite
View from above satellite

Ground track
Ground track

The orbit data is extracted from the following two-line orbital elements,

1    58U 60013A   20340.63728351  .00000102  00000-0  30064-4 0  9997
2    58  28.3282 306.1723 0165061  46.5436 314.8711 13.46324438962234
Epoch (UTC): 05 December 2020 15:17:41
Eccentricity: 0.0165061
inclination: 28.3282°
perigee height: 962 km
apogee height: 1209 km
right ascension of ascending node: 306.1723°
argument of perigee: 46.5436°
revolutions per day: 13.46324438
mean anomaly at epoch: 314.8711°
orbit number at epoch: 96223

The dashed part of the orbit path shows where the satellite is in the earth's shadow,  

DLR